W4OA Weather Reports


Display with metric or nautical units.
time (UTC)temp
F
wind
direction
speed
MPH
gust
MPH
rain 1hr
in
rain 24hr
in
rain mn
in
humidity
%
barometer
mb
20260505003958 69 23 0.0 0.0 0.00 0.00 0.00 46 1008.0
20260505003459 70 315 0.0 0.0 0.00 0.00 0.00 43 1008.0
20260505002959 70 315 0.0 0.0 0.00 0.00 0.00 42 1008.0
20260505002500 71 315 0.0 0.0 0.00 0.00 0.00 40 1008.0
20260505001959 72 315 0.0 0.0 0.00 0.00 0.00 39 1008.0
20260505001458 72 338 0.0 0.0 0.00 0.00 0.00 39 1008.0
20260505000958 73 293 0.0 0.0 0.00 0.00 0.00 37 1008.0
20260505000458 73 338 0.0 0.0 0.00 0.00 0.00 38 1007.0
20260504235958 74 23 0.0 0.0 0.00 0.00 0.00 36 1008.0
20260504235458 74 23 0.0 0.0 0.00 0.00 0.00 38 1008.0
20260504234959 75 68 2.0 2.0 0.00 0.00 0.00 35 1008.0
20260504234458 75 90 3.0 4.0 0.00 0.00 0.00 34 1008.0
20260504233959 76 90 0.0 1.0 0.00 0.00 0.00 36 1008.0
20260504233458 76 23 2.0 2.0 0.00 0.00 0.00 35 1008.0
20260504232959 76 113 1.0 2.0 0.00 0.00 0.00 34 1008.0
20260504232459 77 90 1.0 2.0 0.00 0.00 0.00 35 1008.0
20260504231958 77 23 1.0 2.0 0.00 0.00 0.00 36 1008.0
20260504231458 77 45 2.0 3.0 0.00 0.00 0.00 35 1008.0
20260504230958 78 90 0.0 0.0 0.00 0.00 0.00 34 1008.0
20260504230458 78 23 0.0 1.0 0.00 0.00 0.00 35 1008.0
20260504225958 78 315 2.0 2.0 0.00 0.00 0.00 36 1008.0
20260504225458 77 45 2.0 3.0 0.00 0.00 0.00 36 1008.0
20260504224958 78 68 0.0 1.0 0.00 0.00 0.00 36 1008.0
20260504224459 78 68 0.0 1.0 0.00 0.00 0.00 35 1008.0
20260504223958 77 90 0.0 0.0 0.00 0.00 0.00 34 1008.0
20260504223459 77 68 0.0 0.0 0.00 0.00 0.00 35 1008.0
20260504222958 76 338 0.0 0.0 0.00 0.00 0.00 36 1008.0
20260504222458 77 45 0.0 1.0 0.00 0.00 0.00 35 1008.0
20260504221958 77 68 3.0 4.0 0.00 0.00 0.00 35 1008.0
20260504221458 77 113 2.0 3.0 0.00 0.00 0.00 34 1008.0
20260504220517 78 68 1.0 2.0 0.00 0.00 0.00 34 1008.0
20260504215958 78 68 3.0 5.0 0.00 0.00 0.00 34 1008.0
20260504215459 80 90 0.0 0.0 0.00 0.00 0.00 34 1008.0
20260504214959 79 68 4.0 5.0 0.00 0.00 0.00 33 1008.0
20260504214458 79 68 4.0 5.0 0.00 0.00 0.00 33 1008.0
20260504213958 81 90 1.0 2.0 0.00 0.00 0.00 33 1008.0
20260504213458 81 338 0.0 0.0 0.00 0.00 0.00 33 1008.0
20260504212958 79 180 1.0 2.0 0.00 0.00 0.00 34 1008.0
20260504212458 79 293 0.0 0.0 0.00 0.00 0.00 33 1008.0
20260504211958 80 23 0.0 1.0 0.00 0.00 0.00 31 1008.0
20260504211458 79 45 2.0 2.0 0.00 0.00 0.00 31 1008.0
20260504210958 79 23 1.0 2.0 0.00 0.00 0.00 31 1008.0
20260504210459 80 68 3.0 3.0 0.00 0.00 0.00 30 1008.0
20260504205959 80 338 0.0 1.0 0.00 0.00 0.00 31 1008.0
20260504205459 78 68 3.0 3.0 0.00 0.00 0.00 32 1008.0
20260504204958 79 90 3.0 4.0 0.00 0.00 0.00 33 1008.0
20260504204458 78 225 2.0 2.0 0.00 0.00 0.00 32 1008.0
20260504203959 80 68 4.0 7.0 0.00 0.00 0.00 32 1008.0
20260504203458 78 68 4.0 6.0 0.00 0.00 0.00 32 1008.0
20260504202959 80 135 1.0 2.0 0.00 0.00 0.00 33 1008.0
20260504202458 80 68 3.0 4.0 0.00 0.00 0.00 32 1009.0
20260504201959 79 68 2.0 5.0 0.00 0.00 0.00 32 1008.0
20260504201458 80 135 2.0 2.0 0.00 0.00 0.00 32 1008.0
20260504200958 79 113 2.0 2.0 0.00 0.00 0.00 34 1008.0
20260504200458 79 68 3.0 5.0 0.00 0.00 0.00 32 1009.0
20260504195958 79 135 3.0 4.0 0.00 0.00 0.00 31 1009.0
20260504195458 80 113 1.0 2.0 0.00 0.00 0.00 32 1009.0
20260504194958 82 0 1.0 1.0 0.00 0.00 0.00 29 1009.0
20260504194458 79 68 0.0 0.0 0.00 0.00 0.00 30 1009.0
20260504193958 79 338 0.0 1.0 0.00 0.00 0.00 30 1009.0
20260504193459 80 68 1.0 3.0 0.00 0.00 0.00 30 1009.0
20260504192958 80 68 1.0 3.0 0.00 0.00 0.00 30 1009.0
20260504192458 80 90 2.0 2.0 0.00 0.00 0.00 32 1009.0
20260504191959 80 158 1.0 4.0 0.00 0.00 0.00 30 1009.0
20260504191459 80 158 2.0 2.0 0.00 0.00 0.00 30 1009.0
20260504190958 80 135 1.0 2.0 0.00 0.00 0.00 30 1009.0
20260504190459 79 158 1.0 2.0 0.00 0.00 0.00 30 1009.0
20260504185958 79 158 1.0 2.0 0.00 0.00 0.00 30 1009.0
20260504185459 80 338 0.0 0.0 0.00 0.00 0.00 29 1010.0
20260504184641 78 135 0.0 1.0 0.00 0.00 0.00 31 1009.0
20260504183959 77 90 2.0 3.0 0.00 0.00 0.00 33 1010.0
20260504183459 80 180 0.0 1.0 0.00 0.00 0.00 32 1010.0
20260504182958 79 203 0.0 1.0 0.00 0.00 0.00 29 1010.0
20260504182459 79 135 1.0 2.0 0.00 0.00 0.00 32 1010.0
20260504181958 78 90 2.0 2.0 0.00 0.00 0.00 34 1010.0
20260504181458 77 158 2.0 3.0 0.00 0.00 0.00 35 1010.0
20260504180958 76 68 0.0 1.0 0.00 0.00 0.00 34 1010.0
20260504180459 77 23 1.0 2.0 0.00 0.00 0.00 34 1010.0
20260504180000 77 315 1.0 2.0 0.00 0.00 0.00 36 1010.0
20260504175458 75 68 1.0 2.0 0.00 0.00 0.00 36 1010.0
20260504174959 75 45 0.0 1.0 0.00 0.00 0.00 36 1010.0
20260504174458 75 315 0.0 0.0 0.00 0.00 0.00 37 1010.0
20260504173958 74 90 2.0 2.0 0.00 0.00 0.00 38 1010.0
20260504173459 73 45 4.0 5.0 0.00 0.00 0.00 36 1010.0
20260504172958 74 45 0.0 0.0 0.00 0.00 0.00 37 1010.0
20260504172459 74 135 1.0 2.0 0.00 0.00 0.00 38 1011.0
20260504171958 73 203 1.0 2.0 0.00 0.00 0.00 37 1011.0
20260504171458 74 158 0.0 0.0 0.00 0.00 0.00 38 1011.0
20260504170959 74 158 1.0 2.0 0.00 0.00 0.00 37 1011.0
20260504170458 74 23 1.0 2.0 0.00 0.00 0.00 37 1011.0
20260504150958 68 135 0.0 1.0 0.00 0.00 0.00 44 1012.0
20260504150458 68 225 2.0 2.0 0.00 0.00 0.00 43 1012.0
20260504140958 65 68 2.0 3.0 0.00 0.00 0.00 46 1012.0
20260504140459 65 45 3.0 3.0 0.00 0.00 0.00 46 1012.0
20260504110458 44 293 0.0 0.0 0.00 0.00 0.00 92 1011.0
20260504100458 45 293 0.0 0.0 0.00 0.00 0.00 91 1011.0
20260504081958 46 293 0.0 0.0 0.00 0.00 0.00 87 1011.0
20260504081458 47 293 0.0 0.0 0.00 0.00 0.00 87 1011.0
20260504080958 47 0 0.0 0.0 0.00 0.00 0.00 87 1011.0
20260504080458 46 338 0.0 0.0 0.00 0.00 0.00 87 1012.0
20260504050458 49 293 0.0 0.0 0.00 0.00 0.00 85 1013.0
20260504045958 49 315 0.0 0.0 0.00 0.00 0.00 85 1013.0
20260504045458 49 338 0.0 0.0 0.00 0.00 0.00 85 1013.0
20260504044958 49 293 0.0 0.0 0.00 0.00 0.00 85 1013.0
20260504044458 49 293 0.0 0.0 0.00 0.00 0.00 85 1013.0
20260504043512 50 338 0.0 0.0 0.00 0.00 0.00 85 1013.0
20260504042958 50 338 0.0 0.0 0.00 0.00 0.00 85 1013.0
20260504042458 50 293 0.0 0.0 0.00 0.00 0.00 84 1013.0
20260504041959 50 293 0.0 0.0 0.00 0.00 0.00 84 1013.0
20260504041458 50 113 0.0 0.0 0.00 0.00 0.00 84 1013.0
20260504040959 50 338 0.0 0.0 0.00 0.00 0.00 83 1013.0
20260504040458 50 23 0.0 0.0 0.00 0.00 0.00 84 1013.0
20260504035958 51 158 0.0 0.0 0.00 0.00 0.00 84 1013.0
20260504035500 50 315 0.0 0.0 0.00 0.00 0.00 83 1013.0
20260504034958 51 338 0.0 0.0 0.00 0.00 0.00 83 1013.0
20260504034458 51 315 0.0 0.0 0.00 0.00 0.00 83 1013.0
20260504033958 51 315 0.0 0.0 0.00 0.00 0.00 82 1013.0
20260504033458 51 338 0.0 0.0 0.00 0.00 0.00 82 1013.0
20260504032958 51 293 0.0 0.0 0.00 0.00 0.00 80 1013.0
20260504032458 51 293 0.0 0.0 0.00 0.00 0.00 81 1013.0
20260504031958 52 293 0.0 0.0 0.00 0.00 0.00 79 1013.0
20260504031459 52 315 0.0 0.0 0.00 0.00 0.00 79 1013.0
20260504030958 52 180 0.0 0.0 0.00 0.00 0.00 77 1013.0
20260504030458 52 315 0.0 0.0 0.00 0.00 0.00 77 1013.0
20260504030003 52 293 0.0 0.0 0.00 0.00 0.00 78 1012.0
20260504025459 52 293 0.0 0.0 0.00 0.00 0.00 77 1013.0
20260504024959 52 315 0.0 0.0 0.00 0.00 0.00 77 1012.0
20260504024458 53 315 0.0 0.0 0.00 0.00 0.00 77 1012.0
20260504023958 53 293 0.0 0.0 0.00 0.00 0.00 76 1013.0
20260504023459 53 293 0.0 0.0 0.00 0.00 0.00 75 1013.0
20260504022959 53 315 0.0 0.0 0.00 0.00 0.00 73 1013.0
20260504022458 54 315 0.0 0.0 0.00 0.00 0.00 72 1012.0
20260504021958 54 315 0.0 0.0 0.00 0.00 0.00 72 1012.0
20260504021458 54 270 0.0 0.0 0.00 0.00 0.00 72 1012.0
20260504020958 54 315 0.0 0.0 0.00 0.00 0.00 71 1012.0
20260504020459 55 315 0.0 0.0 0.00 0.00 0.00 68 1012.0
20260504015958 55 315 0.0 0.0 0.00 0.00 0.00 69 1012.0
20260504015458 55 135 0.0 0.0 0.00 0.00 0.00 69 1012.0
20260504014959 56 270 0.0 0.0 0.00 0.00 0.00 67 1012.0
20260504014503 56 180 0.0 0.0 0.00 0.00 0.00 66 1012.0
20260504013958 56 248 0.0 0.0 0.00 0.00 0.00 66 1012.0
20260504013459 56 293 0.0 0.0 0.00 0.00 0.00 64 1012.0
20260504012959 57 338 0.0 0.0 0.00 0.00 0.00 61 1012.0
20260504012458 57 315 0.0 0.0 0.00 0.00 0.00 63 1012.0
20260504011959 57 315 0.0 0.0 0.00 0.00 0.00 60 1012.0
20260504011459 58 315 0.0 0.0 0.00 0.00 0.00 58 1012.0
20260504010958 58 315 0.0 0.0 0.00 0.00 0.00 59 1012.0
20260504010504 59 315 0.0 0.0 0.00 0.00 0.00 58 1011.0
20260504005959 59 315 0.0 0.0 0.00 0.00 0.00 58 1012.0
20260504005458 60 225 0.0 0.0 0.00 0.00 0.00 57 1012.0
20260504004959 60 293 0.0 0.0 0.00 0.00 0.00 54 1011.0
20260504004459 60 0 0.0 0.0 0.00 0.00 0.00 53 1011.0